一网星座-0540星 (ONEWEB-0540 )

导读 | 星芒AI

ONEWE-0540 是 OneWeb 卫星通信星座计划中的一颗低轨通信卫星,旨在为全球提供高速互联网服务。该卫星由空中客车防务与航天公司制造,采用标准化设计以降低成本并提高部署效率。它运行在约 1200 公里的近地轨道,支持 L 波段和 Ka 波段通信,主要服务于航空、海运及偏远地区用户。ONEWE-0540 的发射进一步增强了 OneWeb 的全球网络覆盖能力,助力其实现提供公平、可靠互联网接入的愿景。

基本信息
目录编号:
54645
目录名称:
ONEWEB-0540
国际标识:
2022-166D
轨道中心:
EARTH
卫星名称:
一网星座-0540星
卫星全名:
一网星座-0540星 (ONEWEB-0540 )
卫星状态:
在轨 (已飞行1057 天)
发射日期:
2022-12-08 UTC
国别 :
英国 (GB)
星等 :
--
轨道信息
数据来源 国际轨道数据 AOE轨道数据
星历时间 2025-10-30T06:52:55+0800
6小时前
查看轨道信息
2025-10-26T05:00:00+0800
4天前
查看轨道信息
半长轴 7555.892km 7555.968km
偏心率 0.0001712 0.0001957
轨道倾角 87.917° 87.918°
近地点辐角 92.347° 79.998°
升交点赤经 289.941° 290.758°
平近点角 267.786° 323.811°
近地点 1176.463km 1176.354km
远地点 1179.051km 1179.312km
周期 108.940分钟 108.942分钟
每日圈数 13.218258 13.218058
详细信息
平衡模式:
三轴稳定
覆盖范围:
全球
运营商:
一网卫星公司
运营商所在国:
英国
制造商(研发单位):
一网卫星公司
制造商所在国:
英国
使用方式:
暂无
卫星简介
OneWeb卫星网络由648颗重约125公斤的微型卫星组成,运行在1200公里的轨道上。 每颗卫星都能够提供至少每秒8千兆位的吞吐量,以使用其高吞吐量的Ku频段有效载荷为家庭和移动平台提供互联网接入。该卫星仍在工作。
2D轨道图
3D轨道图
轨道高度分析图
轨道倾角分析图
轨道综合分析图
查看轨道综合分析图